GFSFLT2_sfc_30mbdewp_117.txt.gz
Dewpoint
48 47 47 47 47 47 47 47 47 49 49 48 47 45 43 41 39 39 39 39 39 38 39 39 40 45 47
48 45 46 47 47 45 44 44 44 45 47 47 46 44 42 40 38 37 37 37 37 37 38 38 40 45 47
49 44 44 44 42 43 42 42 42 43 45 46 45 44 42 40 37 37 36 35 36 36 37 37 41 45 47
46 43 42 42 43 41 40 40 40 40 43 45 45 44 44 40 37 37 34 35 35 35 36 36 41 43 46
45 43 41 40 41 42 42 41 39 39 39 41 42 41 41 38 37 35 34 35 34 35 35 36 40 42 45
45 43 43 42 42 41 42 39 37 39 38 37 37 35 32 32 32 32 34 33 34 35 35 35 39 41 43
44 44 44 43 43 40 41 39 39 37 38 36 31 32 31 28 31 32 34 33 33 34 34 35 36 39 41
46 46 45 45 43 42 41 39 34 34 36 35 30 30 28 28 31 35 33 32 31 33 34 34 34 36 37
45 46 46 46 44 40 37 36 34 32 32 33 27 29 27 28 30 35 33 33 29 33 33 34 33 31 32
39 41 43 44 44 41 38 36 34 32 32 32 25 25 26 25 28 32 32 31 30 30 30 32 33 27 29
39 38 38 39 41 40 38 38 35 35 31 31 26 24 23 24 26 30 31 29 27 25 27 30 34 32 30
36 36 35 35 36 37 37 37 36 36 32 29 27 25 24 23 23 27 28 27 27 25 26 26 29 31 30
35 34 34 34 33 32 32 31 31 32 33 30 27 25 24 24 23 25 26 26 27 27 25 24 24 25 27
35 33 32 31 31 30 29 29 28 26 27 28 27 25 22 24 24 25 25 24 26 25 25 25 23 23 26
33 31 30 29 29 29 29 28 28 25 24 25 25 25 26 23 22 24 23 24 25 25 24 23 23 23 22
33 31 29 28 28 28 28 28 28 26 25 24 25 25 24 23 25 23 23 24 24 24 22 21 22 23 22
32 31 30 29 29 27 27 27 27 26 26 25 25 26 22 20 24 24 23 23 24 23 23 21 23 24 25

GFSFLT2_sfc_30mbdewp_120.txt.gz
Dewpoint
53 51 50 50 50 51 50 50 51 52 52 52 50 49 48 46 44 42 42 41 41 42 41 41 41 40 41
52 50 48 49 49 48 48 48 49 50 51 51 49 48 47 45 43 42 41 40 39 39 39 39 39 39 41
49 49 47 46 46 46 45 46 46 47 50 50 49 48 46 45 43 41 39 39 37 36 38 37 38 39 44
47 47 45 44 44 43 41 42 43 43 46 48 48 47 46 45 43 40 39 38 36 36 37 36 37 39 43
44 45 43 41 42 43 43 43 42 42 42 43 46 47 46 45 43 40 38 37 35 36 36 36 36 39 42
41 42 42 43 44 44 43 40 39 41 40 40 43 42 43 44 43 39 38 36 36 35 35 35 35 38 40
41 42 43 44 45 43 42 41 41 41 40 39 39 40 39 38 40 39 36 35 35 34 34 35 35 36 38
40 41 42 44 45 45 43 42 38 37 40 38 34 37 35 34 37 36 35 36 34 32 34 34 34 35 35
41 42 42 43 44 44 39 38 36 35 36 35 32 33 32 32 32 35 35 35 33 31 33 33 34 33 31
36 39 41 41 42 43 42 37 36 33 33 34 30 30 30 31 32 35 36 34 33 31 31 31 34 29 28
35 37 39 39 39 41 42 39 36 36 34 35 32 31 31 28 31 32 33 32 30 30 28 29 34 32 31
35 35 36 37 37 37 37 37 37 37 35 33 31 30 29 27 27 30 32 31 29 26 26 26 30 30 32
34 34 36 36 34 33 32 32 32 33 34 32 32 31 31 30 27 27 29 30 30 30 27 25 25 26 30
34 35 34 32 32 32 30 30 30 27 28 31 31 31 29 30 30 27 28 28 29 28 27 26 23 25 29
32 33 32 31 30 30 30 30 30 27 25 26 29 30 30 29 28 28 27 27 28 27 26 25 25 24 25
31 32 31 30 30 29 30 30 30 28 27 26 27 27 27 27 29 25 25 26 27 26 26 25 24 23 24
30 31 31 31 30 29 29 30 30 29 28 27 27 28 25 24 26 27 26 25 25 24 24 25 25 23 25

GFSFLT2_sfc_30mbdewp_123.txt.gz
Dewpoint
54 54 53 53 52 52 52 53 53 53 55 55 54 53 53 52 51 49 47 46 46 45 45 44 44 43 43
51 51 51 51 51 50 50 50 50 51 52 54 53 53 52 51 49 47 46 45 44 43 43 42 42 42 41
46 48 49 49 48 48 48 48 48 48 50 51 53 53 51 50 49 47 45 43 42 41 40 39 40 40 39
42 43 44 46 45 44 44 45 45 46 46 48 50 52 51 50 49 47 45 43 42 40 38 38 38 38 38
41 40 39 41 42 43 43 43 44 44 44 44 46 48 49 50 48 46 44 42 41 39 38 38 37 37 37
37 36 37 40 42 43 43 42 40 44 42 42 43 44 46 48 47 46 44 42 41 39 38 37 36 36 36
35 36 37 38 39 40 40 42 42 43 41 40 42 41 44 45 47 46 44 43 41 39 37 35 35 35 35
33 35 38 39 39 40 41 41 42 40 41 38 37 39 40 39 43 45 43 42 40 39 37 35 35 35 35
33 34 36 37 39 41 39 38 37 38 37 37 35 35 35 35 37 42 42 40 39 37 34 33 34 34 34
33 34 36 36 38 39 39 36 36 35 35 35 32 32 32 32 34 36 40 40 39 37 32 33 32 35 32
34 35 36 36 37 38 39 37 35 36 36 35 32 31 32 29 31 32 35 37 37 34 32 30 31 34 32
30 33 34 34 36 37 36 35 36 35 37 35 33 32 31 28 28 31 32 33 33 32 29 27 30 30 32
27 29 34 35 34 34 33 32 32 31 33 34 34 32 32 30 28 29 30 31 32 30 28 27 27 27 31
28 29 33 33 32 32 31 31 30 29 29 31 32 32 30 31 30 29 31 28 31 30 28 26 25 28 30
27 28 30 32 32 32 30 30 29 30 27 28 30 30 30 30 29 30 30 29 29 29 27 25 25 25 28
27 28 29 30 31 31 30 30 29 30 28 27 27 27 28 29 31 29 29 28 29 27 27 25 24 23 27
27 28 29 30 31 30 30 29 29 30 30 28 27 28 25 24 26 30 28 28 26 25 26 27 25 24 27

GFSFLT2_sfc_30mbdewp_126.txt.gz
Dewpoint
53 53 52 52 52 52 52 51 52 53 53 53 53 54 55 55 55 55 55 54 51 50 49 48 47 46 45
46 47 48 49 49 48 48 49 49 49 49 50 50 52 54 54 54 55 54 52 50 50 49 47 46 45 45
42 43 44 45 44 46 45 45 46 46 47 47 47 48 50 52 53 53 52 50 49 48 47 45 44 43 43
38 39 40 41 43 42 41 42 43 44 46 46 47 47 47 49 52 52 50 49 48 46 45 43 41 41 41
35 35 35 35 35 39 39 39 38 42 43 44 44 44 45 47 48 51 49 48 47 46 45 43 41 40 39
35 34 33 34 36 37 36 35 34 39 41 41 42 42 43 45 47 49 49 48 47 46 45 43 42 40 39
31 32 32 34 36 35 36 36 36 38 40 38 40 40 42 43 45 47 48 48 46 45 44 42 40 38 38
32 32 32 33 34 35 36 37 37 38 38 36 38 39 40 41 43 44 46 47 45 44 43 42 40 39 39
30 31 33 35 36 36 35 34 32 33 37 37 37 36 35 36 37 40 43 46 45 43 42 40 39 38 36
29 32 33 35 36 37 36 34 33 33 36 35 35 34 34 32 33 35 38 43 42 42 41 38 36 35 35
27 28 30 34 35 36 36 35 33 32 36 35 33 32 32 32 31 32 34 37 39 39 38 37 35 35 33
26 27 28 30 33 35 35 34 34 32 34 34 34 33 32 30 29 31 31 32 33 32 32 32 32 34 31
26 27 28 28 32 34 34 34 33 32 31 32 33 32 32 31 29 29 30 30 32 31 31 31 30 27 30
26 26 27 29 31 33 31 31 30 29 29 31 31 32 31 31 30 29 30 28 30 30 30 29 27 29 30
26 26 28 28 29 32 31 30 28 28 28 26 29 30 30 30 28 29 29 29 30 29 27 26 24 26 29
26 27 27 27 28 30 31 30 28 28 29 26 26 27 28 28 31 28 28 28 29 29 27 23 22 26 29
25 26 26 27 28 28 29 30 28 29 30 27 26 26 25 23 26 31 27 27 27 27 26 26 23 26 28

GFSFLT2_sfc_30mbdewp_129.txt.gz
Dewpoint
49 48 48 48 48 48 48 48 47 47 47 46 47 48 48 49 51 52 55 55 56 56 57 55 54 52 50
45 44 43 46 45 44 44 46 45 46 46 47 47 47 47 46 48 49 50 53 54 55 56 55 54 52 50
39 40 40 39 39 42 42 42 43 44 44 44 45 46 47 48 48 48 49 50 52 54 54 53 52 51 49
36 35 35 36 38 36 37 39 39 37 38 40 43 45 46 46 46 46 46 48 51 53 52 51 50 49 48
34 34 34 34 34 36 35 36 36 35 35 39 38 41 42 42 44 45 45 47 48 52 51 50 48 46 45
31 31 31 32 32 34 31 31 30 34 36 36 38 38 39 41 42 44 45 45 47 49 50 49 47 45 44
30 30 31 31 32 32 32 33 33 35 36 34 35 35 38 40 42 43 44 45 46 46 48 48 46 44 43
30 30 30 30 33 35 35 35 35 34 35 32 34 35 37 37 39 40 40 42 43 45 46 47 45 44 42
29 29 31 32 34 34 33 32 31 32 35 34 35 36 36 35 35 36 37 38 40 42 46 45 44 41 40
27 28 27 29 32 34 35 32 31 31 34 33 34 34 33 34 32 33 34 36 39 45 45 43 40 37 34
26 26 27 27 29 31 31 33 30 30 34 34 32 32 32 32 32 32 32 34 36 38 41 38 36 35 33
25 26 26 26 27 29 31 34 34 32 33 32 29 31 31 31 30 31 32 32 33 32 33 33 34 34 35
24 24 26 27 28 30 32 32 33 33 33 31 30 30 31 30 30 30 31 30 32 31 31 31 31 31 30
25 26 27 28 28 29 30 31 30 28 29 29 29 30 29 31 30 29 30 28 30 30 30 29 27 29 31
25 25 26 26 26 28 30 30 29 28 28 28 28 30 30 30 28 28 29 28 30 29 28 25 25 27 29
24 24 24 25 25 27 29 28 28 28 27 28 26 27 28 28 31 27 28 28 28 29 27 23 23 26 29
23 23 24 24 23 24 26 28 28 27 27 29 26 25 23 23 26 31 26 26 27 27 27 26 24 27 31

GFSFLT2_sfc_30mbdewp_132.txt.gz
Dewpoint
50 49 46 46 44 44 45 45 45 44 45 45 45 46 46 46 47 47 47 48 49 51 54 54 55 57 57
45 43 42 39 39 38 40 40 41 43 41 38 37 37 41 45 46 47 47 46 47 47 49 52 53 54 57
38 38 38 37 36 38 37 38 39 39 37 37 35 38 40 39 41 43 44 44 44 46 47 49 51 54 57
34 34 35 35 35 34 33 35 35 36 36 36 38 38 39 40 40 41 42 43 44 45 46 48 51 54 55
31 32 32 31 31 33 33 32 32 33 34 35 36 37 38 37 38 40 41 42 43 44 45 46 48 52 52
31 29 30 31 31 31 30 30 29 33 33 34 36 35 36 36 37 39 40 41 42 43 44 45 46 50 50
29 29 29 30 29 30 31 33 33 34 34 33 34 33 35 36 38 39 39 40 40 41 42 43 45 46 48
29 29 29 31 31 32 33 33 33 33 34 31 33 33 35 36 37 38 39 38 38 39 39 40 43 45 46
29 29 28 28 29 32 32 30 28 29 31 33 33 33 33 34 35 36 36 36 37 38 42 44 44 47 45
26 26 27 27 27 28 29 28 28 29 32 32 32 33 30 35 35 35 33 34 35 37 41 43 40 37 36
25 25 26 26 26 25 27 29 28 29 31 33 30 30 31 31 34 33 32 32 32 34 35 38 37 36 34
24 23 24 23 26 28 29 30 32 31 33 33 29 29 29 28 29 32 31 31 32 32 32 34 34 35 35
23 24 25 25 27 28 30 31 31 32 33 32 30 29 28 27 28 29 30 30 31 31 30 30 30 30 29
23 25 24 25 26 27 27 28 29 29 29 28 30 28 27 28 28 27 28 27 29 29 29 28 28 30 29
22 22 23 24 24 24 25 27 27 27 27 28 29 28 29 28 25 26 27 28 28 28 28 26 25 27 28
23 23 22 23 23 23 23 24 25 26 27 27 28 26 25 27 29 26 26 26 27 28 28 23 22 26 30
22 22 23 23 22 21 21 22 23 25 27 28 27 24 22 21 25 29 26 26 27 27 27 25 24 28 31

GFSFLT2_sfc_30mbdewp_138.txt.gz
Dewpoint
47 46 41 40 40 42 41 41 40 39 39 39 38 38 38 40 41 41 40 41 41 41 42 42 43 43 44
42 40 40 39 39 37 37 37 36 36 36 37 38 38 36 37 36 37 37 38 39 40 40 41 41 42 44
37 38 39 34 33 34 33 34 34 34 34 36 35 35 35 36 37 38 38 38 40 39 39 40 40 41 43
32 33 32 33 32 31 30 31 31 32 34 35 34 34 35 36 36 37 38 38 38 38 39 40 41 41 42
28 28 29 29 29 30 29 30 30 33 32 31 32 33 34 35 35 36 36 37 38 40 39 38 38 39 40
28 27 28 29 30 29 29 29 27 32 31 30 31 30 33 34 35 35 36 39 39 38 38 38 38 36 37
27 28 28 28 29 27 28 29 29 31 31 28 29 28 32 33 33 34 36 39 36 36 36 36 37 38 41
28 28 29 29 29 29 29 28 27 27 28 26 29 30 30 31 33 34 37 35 35 35 35 35 40 40 41
27 28 28 29 28 26 24 23 23 23 27 30 30 28 28 29 31 35 31 31 33 34 34 34 38 39 38
23 25 26 26 25 25 24 24 25 23 30 27 27 29 27 29 32 30 30 32 31 32 33 33 35 37 36
23 23 24 24 23 24 25 26 25 25 27 28 29 29 28 27 27 27 29 29 31 31 31 32 33 34 35
23 23 23 21 22 24 25 25 26 27 29 30 28 29 27 25 24 26 27 28 30 29 30 30 31 31 31
22 21 21 21 22 22 23 24 23 25 27 28 29 30 28 26 25 25 26 27 28 28 27 27 27 28 27
22 21 21 21 21 21 21 20 21 22 24 24 26 28 26 26 26 25 26 25 27 27 27 27 27 27 26
20 20 21 20 20 20 20 19 20 21 21 22 24 26 27 27 25 26 27 26 27 25 26 26 26 24 24
20 20 19 19 19 18 17 18 18 20 20 20 22 24 23 23 27 25 27 25 25 25 25 25 23 24 26
19 18 18 18 18 17 16 17 17 18 19 21 21 23 20 19 22 28 27 25 25 24 24 25 25 26 29

GFSFLT2_sfc_30mbdewp_141.txt.gz
Dewpoint
45 44 40 39 40 40 40 39 38 39 39 39 39 39 38 38 38 38 38 38 40 40 40 41 41 41 41
41 40 38 37 38 37 35 37 35 36 36 38 38 36 36 37 37 38 38 39 39 39 40 39 40 41 41
37 38 38 33 34 33 32 33 32 33 34 36 35 35 35 36 37 37 38 38 38 39 40 40 40 40 40
33 32 32 32 32 30 29 31 31 32 34 33 32 33 33 34 35 36 37 37 37 38 38 40 40 39 39
29 29 29 29 28 29 28 29 30 34 32 31 31 32 32 33 34 35 36 36 38 40 38 37 38 38 38
28 27 28 29 29 28 27 27 26 33 29 27 29 30 31 32 33 33 35 37 39 37 37 36 37 36 38
27 28 27 28 29 28 28 27 26 26 26 26 29 29 31 29 30 33 35 38 34 34 35 35 36 36 38
27 28 29 29 29 29 27 25 25 26 27 24 29 29 28 29 30 33 35 32 32 33 33 34 34 35 36
27 28 28 28 28 26 24 23 23 23 26 29 26 27 28 29 31 33 31 30 32 32 32 33 34 34 35
23 25 26 26 25 25 25 24 24 23 30 25 25 26 24 27 30 29 29 29 30 30 31 32 33 33 34
24 24 24 22 22 24 25 25 23 23 26 27 27 27 27 26 27 28 30 29 29 29 30 31 31 31 31
23 22 21 21 23 24 24 25 25 24 25 26 26 27 27 26 24 27 29 29 29 28 29 29 30 31 31
23 21 21 23 23 23 24 24 23 24 26 27 27 27 27 26 25 25 27 27 28 29 28 27 27 28 28
22 22 22 22 21 21 21 21 21 22 24 25 25 25 25 26 27 25 27 26 27 27 27 27 27 28 27
22 21 21 21 20 21 20 19 20 20 21 23 23 24 26 26 24 26 26 26 27 26 25 24 26 27 26
21 21 20 20 20 20 18 18 18 19 20 21 22 22 23 24 26 26 26 26 26 26 25 25 25 27 28
21 20 20 19 20 19 18 17 17 19 20 21 21 21 19 19 22 26 27 27 26 24 24 25 26 28 28

GFSFLT2_sfc_30mbdewp_144.txt.gz
Dewpoint
44 43 40 40 39 38 37 38 37 38 39 39 40 41 40 38 38 38 39 39 40 40 40 40 40 41 41
41 41 38 35 37 35 35 35 35 34 35 37 38 37 37 37 37 38 38 39 39 39 39 39 40 40 40
38 39 37 33 34 34 33 34 32 31 32 36 36 34 34 34 36 37 37 38 38 38 38 38 39 40 40
34 32 33 33 33 31 29 30 30 31 34 33 33 33 33 33 34 35 36 37 37 38 38 40 40 38 38
29 29 29 29 28 29 29 29 29 33 33 30 28 29 31 31 33 33 34 35 36 37 40 39 37 36 37
28 26 28 28 28 28 28 27 26 33 27 25 27 30 30 31 30 31 33 34 38 36 36 35 36 36 36
26 26 25 27 28 28 28 27 26 26 25 25 27 29 30 27 29 32 34 36 33 33 33 34 34 34 35
26 26 27 28 29 28 28 26 26 26 27 25 28 27 27 28 30 33 36 32 31 32 32 32 32 33 34
28 29 28 28 28 25 25 24 24 23 27 27 26 26 27 28 30 30 29 30 30 31 31 31 32 32 33
23 24 25 24 24 24 25 24 24 24 29 26 25 26 24 27 29 28 29 29 30 30 30 30 31 31 32
23 23 23 22 23 24 24 25 24 24 25 26 25 25 26 26 27 29 29 30 30 30 30 30 31 31 31
23 23 23 23 24 24 25 25 25 25 26 25 24 25 25 24 24 27 28 30 31 29 30 29 29 29 29
23 23 23 24 24 24 25 26 26 26 26 28 27 27 26 24 24 26 27 27 28 28 28 27 27 27 27
24 24 24 24 23 23 22 23 23 25 27 28 28 26 24 25 25 25 27 26 27 28 27 27 26 28 29
24 23 22 22 22 22 22 21 21 21 23 24 27 27 27 26 23 25 26 26 27 27 27 25 25 27 28
23 22 21 22 22 22 22 21 20 20 22 23 24 23 23 24 28 26 26 26 26 26 26 25 24 27 28
22 22 21 22 22 21 21 21 20 20 21 23 22 21 20 19 22 25 26 26 27 26 25 24 25 26 28

GFSFLT2_sfc_30mbdewp_147.txt.gz
Dewpoint
44 43 40 41 39 38 37 38 37 35 38 37 39 40 39 39 39 39 39 39 40 40 40 40 40 41 41
42 41 38 36 36 35 35 35 35 33 34 35 38 37 36 36 36 37 38 38 38 39 39 39 39 39 40
39 39 37 33 33 34 32 34 34 31 31 33 36 35 34 35 35 36 37 37 37 37 38 38 39 39 40
35 33 33 32 33 31 30 31 30 31 34 34 34 34 32 33 33 34 35 35 35 36 37 38 41 39 37
30 30 30 30 30 31 30 30 29 34 33 30 28 29 31 31 32 32 32 33 34 36 39 38 37 37 36
28 27 28 28 29 29 29 29 27 32 27 27 29 30 31 32 30 30 32 33 36 35 35 35 35 34 35
27 26 26 27 28 29 29 28 27 27 27 27 29 29 30 28 29 31 33 36 34 32 33 33 32 32 33
27 27 28 29 29 28 28 27 27 28 28 26 29 28 29 29 29 33 33 32 32 31 32 32 32 32 33
29 29 28 29 28 26 26 26 25 25 30 27 27 27 27 29 31 30 29 29 30 30 30 31 31 32 32
26 27 25 25 24 25 26 26 25 25 29 25 26 26 24 27 29 29 30 29 29 29 30 31 31 31 30
24 24 24 23 25 25 25 26 24 24 26 26 25 24 25 24 26 27 28 30 29 31 30 29 30 30 29
24 24 24 24 26 26 26 26 27 26 27 26 25 24 23 23 22 24 26 27 29 28 29 28 28 29 29
24 25 25 25 25 26 26 27 27 27 28 27 26 25 26 23 23 24 24 25 27 28 27 27 27 27 26
25 26 25 25 24 25 24 24 23 25 29 28 28 27 24 24 24 22 24 24 27 28 27 26 26 26 26
26 25 24 23 23 24 23 22 22 22 22 25 25 26 25 26 24 25 24 26 25 26 26 25 25 26 26
25 24 23 22 22 22 22 22 21 22 22 22 23 22 22 23 25 26 27 26 27 26 25 26 24 25 26
25 24 23 23 21 21 21 21 21 21 21 21 22 21 19 18 20 24 23 23 24 26 25 25 25 26 27

GFSFLT2_sfc_30mbdewp_153.txt.gz
Dewpoint
44 42 39 39 38 36 36 36 35 35 36 37 40 39 37 37 37 37 38 40 39 39 39 40 40 40 41
42 39 37 36 35 33 32 34 33 33 34 35 38 37 36 36 36 36 37 37 37 37 37 38 38 39 39
39 39 35 33 32 33 33 31 32 34 35 35 35 34 34 33 35 34 35 35 35 36 36 37 37 39 41
35 32 32 33 31 28 26 30 31 32 30 29 30 30 33 33 33 34 34 33 34 34 36 37 37 36 35
28 30 28 27 26 29 28 29 31 28 26 27 28 30 32 32 33 32 32 33 33 34 34 34 33 34 34
26 25 26 27 28 29 28 24 19 29 27 25 30 28 29 29 29 32 33 33 34 32 32 33 33 32 32
25 26 26 27 28 27 26 25 23 26 27 23 28 24 27 27 31 33 33 32 31 31 31 31 31 31 32
27 28 29 28 27 27 26 25 26 28 27 22 26 25 26 27 33 32 32 30 30 31 31 31 30 31 32
30 30 30 27 26 25 22 21 20 24 26 23 24 23 24 25 27 27 27 29 28 28 30 30 30 31 31
27 27 27 26 27 25 25 20 21 21 26 22 23 22 18 22 25 24 25 27 26 28 28 28 29 29 30
24 24 24 24 25 25 26 24 21 21 25 24 22 22 21 21 23 23 24 24 25 27 28 27 27 28 28
24 24 24 24 25 25 25 25 26 24 25 25 23 22 22 21 20 22 23 25 24 25 26 28 29 27 26
24 24 25 25 24 24 25 25 24 25 26 26 25 24 24 22 21 22 23 23 25 25 25 26 28 26 26
25 25 25 24 23 24 23 22 20 21 22 23 25 25 24 24 25 23 23 22 24 25 26 27 26 26 26
25 24 24 24 23 23 23 21 20 20 20 21 22 24 25 23 22 22 22 22 23 24 23 23 24 26 26
26 25 24 23 22 23 23 22 21 21 21 20 20 20 21 21 25 21 21 21 21 22 23 24 24 24 25
26 26 24 23 23 22 22 21 21 22 21 21 20 20 18 17 19 22 20 20 22 23 23 24 25 25 26

GFSFLT2_sfc_30mbdewp_156.txt.gz
Dewpoint
43 42 39 38 37 35 35 35 36 36 36 40 39 38 37 38 37 38 39 39 39 39 39 40 40 40 40
43 40 37 36 34 32 34 34 33 35 36 38 37 36 36 35 37 36 37 37 37 37 37 37 38 38 40
40 39 34 34 32 33 31 32 35 36 33 32 33 32 33 34 35 35 35 35 35 35 36 36 37 37 37
36 33 32 32 30 27 25 30 31 27 28 31 32 34 35 35 34 34 34 34 34 34 35 34 34 34 34
29 29 28 26 24 28 27 29 29 28 26 28 29 30 30 30 30 31 32 33 33 33 32 33 33 33 33
26 24 25 26 27 27 26 22 18 28 26 24 29 25 27 27 30 33 34 32 33 32 32 31 31 31 32
24 24 25 26 27 26 24 23 21 26 26 22 27 23 26 27 33 33 33 32 31 32 32 32 32 31 31
26 27 28 29 28 26 24 24 26 28 27 20 25 23 25 27 33 31 29 30 30 30 30 31 30 31 32
30 31 30 28 25 26 21 20 19 24 26 23 24 22 23 24 27 28 27 29 28 28 29 28 29 30 30
27 29 27 27 27 24 23 17 20 21 26 22 22 22 16 21 24 24 25 25 26 27 28 28 28 28 30
25 25 25 25 25 25 25 22 20 20 26 23 21 21 20 20 22 23 23 23 24 25 26 27 28 28 28
24 23 23 23 25 25 25 25 25 23 25 25 22 22 21 20 19 21 22 23 24 24 25 26 27 28 28
24 24 24 25 25 24 25 25 24 25 27 26 24 23 24 22 21 22 23 23 24 24 24 25 25 27 26
25 25 25 24 23 23 23 21 20 21 22 22 24 25 23 23 23 22 22 22 23 23 23 24 24 25 25
26 25 24 24 23 23 22 20 20 19 19 21 22 23 25 23 21 21 21 21 21 21 21 21 22 24 25
28 26 25 24 23 23 22 22 20 20 20 19 20 19 19 20 24 21 21 20 20 21 22 21 22 23 25
28 26 25 24 25 22 22 22 21 21 21 20 20 19 16 15 17 21 20 20 20 21 22 23 23 24 25